Location: Unspecified
(52.0000°N, 4.4000°E)
Time: 10:11:31
(UTC+00:00)

Meteor 2-10 - Pass Details

Date: 14 May 2025
Orbit: 736 x 866 km, 81.2° (Epoch: 23 June)

Event Time Altitude Azimuth Distance (km) Brightness Sun altitude
Rises 21:32:53 0° 348° (NNW) 3,464 8.9 -14.0°
Reaches altitude 10° 21:35:22 10° 351° (N) 2,522 7.8 -14.2°
Maximum altitude 21:41:05 64° 73° (ENE) 952 4.4 -14.6°
Enters shadow 21:44:42 22° 150° (SSE) 1,757 5.2 -14.9°
